Date String (YYYY-MM-DD hh:mm:ss) UTC,Instrument flags,absolute air pressure of the measurement (hPa),sample flow rate (lpm),inlet stack bypass flow (lpm),air temperature of the measurement (°C),ambient temperature measured by the external sensor (°C),aerosol sample conditioner tube jacket temperature (°C),OPC LED temperature (°C),internal box temperature (°C),relative humidity of the measurement (%),span deviation,mass concentration of particles derived from Lorenz-Mie calculation of OPC scattering (μg/m³),mass concentration of particles derived from Lorenz-Mie calculation of OPC scattering (μg/m³),mass concentration of particles derived from Lorenz-Mie calculation of OPC scattering (μg/m³)
DateTimeUTC,F1_M11,P_M11,Q1_M11,Q2_M11,T1_M11,T2_M11,T3_M11,T4_M11,T5_M11,U1_M11,ZSPAN_M11,X2_M11,X0_M11,X1_M11
2023-09-23 19:00:00,SystemResetWarning,0828.9,5.00,000.00,028.2,026.4,000.0,036.6,029.8,11.2,0000.0,0003.99,0013.12,0003.24
2023-09-23 19:01:00,SystemResetWarning,0829.0,5.00,000.00,028.3,026.7,000.0,036.6,029.9,11.1,0000.0,0004.01,0013.45,0003.22
2023-09-23 19:02:00,SystemResetWarning,0828.8,5.00,000.00,028.3,026.9,000.0,036.6,030.0,10.8,0000.0,0004.01,0013.52,0003.21
2023-09-23 19:03:00,SystemResetWarning,0828.7,4.99,000.00,028.3,027.1,000.0,036.6,030.0,10.5,0000.0,0003.97,0013.77,0003.20
2023-09-23 19:04:00,SystemResetWarning,0828.7,5.00,000.00,028.4,027.2,000.0,036.7,030.1,10.0,0000.0,0003.92,0013.37,0003.18
2023-09-23 19:05:00,SystemResetWarning,0828.6,5.00,000.00,028.4,027.3,000.0,036.7,030.1,9.9,0000.0,0003.91,0013.32,0003.17
2023-09-23 19:06:00,SystemResetWarning,0828.7,5.00,000.00,028.5,027.5,000.0,036.7,030.2,9.3,0000.0,0003.92,0013.43,0003.17
2023-09-23 19:07:00,SystemResetWarning,0828.7,4.99,000.00,028.5,027.6,000.0,036.7,030.2,9.0,0000.0,0003.88,0013.05,0003.16
2023-09-23 19:08:00,SystemResetWarning,0828.7,5.00,000.00,028.6,027.6,000.0,036.8,030.3,9.1,0000.0,0003.81,0011.72,0003.15
2023-09-23 19:09:00,SystemResetWarning,0828.7,4.99,000.00,028.6,026.7,000.0,036.7,030.2,9.0,0000.0,0003.75,0010.80,0003.14
2023-09-23 19:10:00,SystemResetWarning,0828.7,5.01,000.00,028.5,024.9,000.0,036.7,029.8,9.2,0000.0,0003.71,0010.13,0003.12
2023-09-23 19:11:00,SystemResetWarning,0828.7,5.00,000.00,028.4,024.4,000.0,036.6,029.7,9.2,0000.0,0003.67,0009.93,0003.10
2023-09-23 19:12:00,SystemResetWarning,0828.7,5.02,000.00,028.3,024.6,000.0,036.6,029.5,9.3,0000.0,0003.64,0010.12,0003.09
2023-09-23 19:13:00,SystemResetWarning,0828.7,4.99,000.00,028.2,024.9,000.0,036.6,029.5,9.9,0000.0,0003.63,0010.70,0003.05
2023-09-23 19:14:00,SystemResetWarning,0828.7,5.00,000.00,028.2,025.3,000.0,036.6,029.6,11.2,0000.0,0003.62,0010.72,0003.01
2023-09-23 19:15:00,SystemResetWarning,0828.6,5.00,000.00,028.2,025.7,000.0,036.6,029.7,10.8,0000.0,0003.63,0011.06,0002.96
2023-09-23 19:16:00,SystemResetWarning,0828.7,5.00,000.00,028.2,026.1,000.0,036.6,029.7,11.2,0000.0,0003.61,0010.83,0002.92
2023-09-23 19:17:00,SystemResetWarning,0828.7,4.99,000.00,028.2,026.4,000.0,036.6,029.8,10.9,0000.0,0003.57,0009.84,0002.89
2023-09-23 19:18:00,SystemResetWarning,0828.7,4.99,000.00,028.3,026.6,000.0,036.6,029.9,10.7,0000.0,0003.58,0010.06,0002.87
2023-09-23 19:19:00,SystemResetWarning,0828.6,5.00,000.00,028.3,026.9,000.0,036.6,030.0,10.8,0000.0,0003.56,0010.17,0002.83
2023-09-23 19:20:00,SystemResetWarning,0828.6,4.99,000.00,028.3,027.0,000.0,036.6,030.0,11.0,0000.0,0003.55,0010.29,0002.81
2023-09-23 19:21:00,SystemResetWarning,0828.7,5.01,000.00,028.4,027.2,000.0,036.6,030.1,11.2,0000.0,0003.56,0010.24,0002.82
2023-09-23 19:22:00,SystemResetWarning,0828.6,5.01,000.00,028.4,027.3,000.0,036.7,030.2,10.8,0000.0,0003.55,0010.09,0002.85
2023-09-23 19:23:00,SystemResetWarning,0828.6,5.00,000.00,028.5,027.4,000.0,036.7,030.2,10.7,0000.0,0003.53,0009.54,0002.83
2023-09-23 19:24:00,SystemResetWarning,0828.6,4.99,000.00,028.5,027.2,000.0,036.7,030.2,10.8,0000.0,0003.51,0009.65,0002.83
2023-09-23 19:25:00,SystemResetWarning,0828.6,4.99,000.00,028.4,025.5,000.0,036.7,029.8,10.6,0000.0,0003.54,0009.18,0002.85
2023-09-23 19:26:00,SystemResetWarning,0828.6,5.02,000.00,028.3,024.3,000.0,036.6,029.6,10.9,0000.0,0003.59,0008.43,0002.88
2023-09-23 19:27:00,SystemResetWarning,0828.6,5.00,000.00,028.2,024.3,000.0,036.5,029.5,11.1,0000.0,0003.61,0008.52,0002.89
2023-09-23 19:28:00,SystemResetWarning,0828.6,5.00,000.00,028.1,024.6,000.0,036.5,029.4,11.2,0000.0,0003.63,0008.59,0002.88
2023-09-23 19:29:00,SystemResetWarning,0828.5,5.00,000.00,028.1,025.0,000.0,036.5,029.5,11.2,0000.1,0003.61,0008.57,0002.87
2023-09-23 19:30:00,SystemResetWarning,0828.5,4.99,000.00,028.1,025.4,000.0,036.5,029.5,11.4,0000.4,0003.62,0008.57,0002.90
2023-09-23 19:31:00,SystemResetWarning,0828.5,4.99,000.00,028.1,025.8,000.0,036.5,029.6,11.1,0000.8,0003.63,0008.75,0002.93
2023-09-23 19:32:00,SystemResetWarning,0828.5,5.00,000.00,028.1,026.2,000.0,036.5,029.7,10.8,0001.6,0003.65,0008.96,0002.94
2023-09-23 19:33:00,SystemResetWarning,0828.5,5.00,000.00,028.1,026.4,000.0,036.5,029.8,10.5,0000.1,0003.67,0009.43,0002.93
2023-09-23 19:34:00,SystemResetWarning,0828.5,5.00,000.00,028.2,026.7,000.0,036.5,029.8,10.5,0000.0,0003.68,0010.60,0002.92
2023-09-23 19:35:00,SystemResetWarning,0828.5,4.99,000.00,028.2,026.9,000.0,036.5,029.9,10.8,0000.0,0003.70,0009.97,0002.93
2023-09-23 19:36:00,SystemResetWarning,0828.5,4.99,000.00,028.3,027.0,000.0,036.6,030.0,10.6,0000.0,0003.70,0009.86,0002.93
2023-09-23 19:37:00,SystemResetWarning,0828.6,5.00,000.00,028.3,027.2,000.0,036.6,030.1,10.6,0000.0,0003.68,0009.71,0002.92
2023-09-23 19:38:00,SystemResetWarning,0828.5,5.00,000.00,028.4,027.3,000.0,036.6,030.1,10.4,0000.0,0003.62,0009.91,0002.90
2023-09-23 19:39:00,SystemResetWarning,0828.5,5.00,000.00,028.4,027.4,000.0,036.6,030.2,10.5,0000.0,0003.58,0010.22,0002.90
2023-09-23 19:40:00,SystemResetWarning,0828.5,5.01,000.00,028.4,027.5,000.0,036.6,030.2,10.7,0000.0,0003.57,0010.34,0002.89
2023-09-23 19:41:00,SystemResetWarning,0828.4,4.99,000.00,028.5,026.6,000.0,036.6,030.0,10.5,0000.0,0003.52,0010.39,0002.86
2023-09-23 19:42:00,SystemResetWarning,0828.4,5.01,000.00,028.3,024.8,000.0,036.6,029.5,10.2,0000.0,0003.47,0010.05,0002.80
2023-09-23 19:43:00,SystemResetWarning,0828.4,5.01,000.00,028.2,024.2,000.0,036.5,029.4,10.4,0000.0,0003.40,0009.51,0002.73
2023-09-23 19:44:00,SystemResetWarning,0828.4,5.00,000.00,028.1,024.5,000.0,036.5,029.4,10.3,0000.0,0003.33,0009.11,0002.65
2023-09-23 19:45:00,SystemResetWarning,0828.4,4.99,000.00,028.0,024.8,000.0,036.5,029.4,10.7,0000.0,0003.26,0008.01,0002.60
2023-09-23 19:46:00,SystemResetWarning,0828.4,5.01,000.00,028.0,025.2,000.0,036.5,029.5,10.7,0000.0,0003.22,0008.29,0002.55
2023-09-23 19:47:00,SystemResetWarning,0828.4,5.00,000.00,028.0,025.6,000.0,036.5,029.6,11.0,0000.0,0003.15,0008.50,0002.47
2023-09-23 19:48:00,SystemResetWarning,0828.4,5.00,000.00,028.1,025.9,000.0,036.5,029.6,10.6,0000.0,0003.07,0008.32,0002.39
2023-09-23 19:49:00,SystemResetWarning,0828.4,5.01,000.00,028.1,026.3,000.0,036.5,029.7,10.6,0000.0,0002.99,0008.08,0002.34
2023-09-23 19:50:00,SystemResetWarning,0828.4,5.00,000.00,028.1,026.5,000.0,036.5,029.8,10.5,0000.0,0003.04,0007.82,0002.33
2023-09-23 19:51:00,SystemResetWarning,0828.4,4.99,000.00,028.2,026.8,000.0,036.5,029.8,10.5,0000.0,0003.10,0008.02,0002.33
2023-09-23 19:52:00,SystemResetWarning,0828.4,5.00,000.00,028.2,027.0,000.0,036.5,029.9,10.2,0000.0,0003.13,0008.37,0002.33
2023-09-23 19:53:00,SystemResetWarning,0828.4,5.00,000.00,028.3,027.1,000.0,036.5,030.0,9.8,0000.0,0003.16,0009.48,0002.38
2023-09-23 19:54:00,SystemResetWarning,0828.4,4.99,000.00,028.3,027.3,000.0,036.6,030.1,9.8,0000.0,0003.22,0009.66,0002.42
2023-09-23 19:55:00,SystemResetWarning,0828.4,4.99,000.00,028.4,027.4,000.0,036.6,030.1,9.9,0000.0,0003.26,0009.74,0002.45
2023-09-23 19:56:00,SystemResetWarning,0828.4,5.00,000.00,028.4,027.5,000.0,036.6,030.2,9.9,0000.0,0003.30,0010.26,0002.49
2023-09-23 19:57:00,SystemResetWarning,0828.4,5.00,000.00,028.5,027.3,000.0,036.6,030.2,9.8,0000.0,0003.34,0010.05,0002.52
2023-09-23 19:58:00,SystemResetWarning,0828.3,5.00,000.00,028.4,025.7,000.0,036.6,029.8,9.7,0000.0,0003.36,0009.90,0002.56
2023-09-23 19:59:00,SystemResetWarning,0828.3,5.00,000.00,028.3,024.3,000.0,036.5,029.6,9.8,0000.0,0003.36,0009.89,0002.59
